Regional Weather Roundup
Issued by NWS

Home | Current Version | Previous Version | Text Only | Print | Product List | Glossary Off
Versions: 1 2 3 4 5 6 7 8 9 10 11 12 13 14 15 16 17 18 19 20 21 22 23 24 25 26 27 28 29 30 31 32 33 34 35 36 37 38 39 40 41 42 43 44 45 46 47 48 49 50

000
ASUS45 KABQ 040701
RWRNM
NEW MEXICO REGIONAL WEATHER ROUNDUP
NATIONAL WEATHER SERVICE ALBUQUERQUE NM
100 AM MDT FRI SEP 04 2015

NOTE: "FAIR" MEANS FEW OR NO CLOUDS BELOW 12,000 FEET AGL WITH NO
       SIGNIFICANT WEATHER OR OBSTRUCTIONS TO VISION.

      THIS PRODUCT IS RELEASED AS TWO VERSIONS.  ONE VERSION NEAR
      THE TOP OF THE HOUR CONTAINING PRELIMINARY DATA FROM ALBUQUERQUE
      AND OTHER STATIONS.  A FINAL VERSION WITH ADDITIONAL DATA IS
      ISSUED ABOUT 10 MINUTES AFTER THE HOUR.

NMZ501-503-504-510>518-040800-
NORTHWEST PLATEAU/NORTHCENTRAL MOUNTAINS

CITY           SKY/WX    TMP DP  RH WIND       PRES   REMARKS
FARMINGTON     CLEAR     66  47  50 CALM      30.07R
LOS ALAMOS     CLEAR     64  44  47 S10       30.19S
SANTA FE       PTCLDY    68  43  40 W12       30.13S
TAOS           CLEAR     52  36  54 S8        30.21R
ANGEL FIRE     FAIR      41  38  89 CALM      30.29S

$$
NMZ402-403-502-505>509-040800-
WESTCENTRAL MOUNTAINS/SOUTHWEST MOUNTAINS

CITY           SKY/WX    TMP DP  RH WIND       PRES   REMARKS
GALLUP         CLOUDY    59  48  67 S7        30.17S
GRANTS         MOCLDY    64  47  53 SE7       30.18S
SILVER CITY      N/A     63  57  82 N8        30.13F

$$
NMZ407-409-411-412-040800-
SOUTHERN DESERTS

CITY           SKY/WX    TMP DP  RH WIND       PRES   REMARKS
DEMING         MOCLDY    71  55  56 W8        30.04F
HOLLOMAN AFB   CLEAR     72  52  50 SE6       29.99F
ALAMOGORDO     PTCLDY    72  48  43 CALM      30.02S
T OR C         MOCLDY    67  57  70 NW7       30.06R

$$
NMZ519>523-040800-
CENTRAL VALLEYS/CENTRAL HIGHLANDS

CITY           SKY/WX    TMP DP  RH WIND       PRES   REMARKS
ALBUQUERQUE    MOCLDY    72  49  44 SE6       30.09F
DOUBLE EAGLE   MOCLDY    68  47  47 SW7       30.12S
MORIARTY ARPT  FAIR      67  44  43 SW3       30.15F
CLINES CORNERS PTCLDY    62  44  51 W9        30.18S
BELEN          PTSUNNY   69  50  49 SW6       30.07F
SOCORRO        NOT AVBL

$$
NMZ524>526-539-540-040800-
SOUTHCENTRAL MOUNTAINS

CITY           SKY/WX    TMP DP  RH WIND       PRES   REMARKS
RUIDOSO        PTCLDY    64  46  52 W6        30.21F

$$
NMZ527>531-040800-
NORTHEAST HIGHLANDS/NORTHEAST PLAINS

CITY           SKY/WX    TMP DP  RH WIND       PRES   REMARKS
LAS VEGAS      CLEAR     57  42  57 S10       30.16S
RATON          CLEAR     56  48  74 NE7       30.10R
CLAYTON        PTCLDY    71  49  45 SW9       30.01R

$$
NMZ532>537-040800-
EASTCENTRAL PLAINS

CITY           SKY/WX    TMP DP  RH WIND       PRES   REMARKS
TUCUMCARI      PTCLDY    75  48  38 S10       29.96S
CANNON AFB     MOCLDY    75  51  42 S8        30.01S
CLOVIS AIRPORT MOCLDY    73  50  43 S8        30.03S

$$
NMZ028-029-538-040800-
SOUTHEAST PLAINS

CITY           SKY/WX    TMP DP  RH WIND       PRES   REMARKS
ROSWELL        PTCLDY    77  47  34 S10       29.96R
ARTESIA        PTCLDY    79  50  36 S9        29.97S
CARLSBAD       MOCLDY    78  48  34 S6        29.95S
HOBBS            N/A     68  52  56 S6        30.00S


$$


USA.gov is the U.S. government's official web portal to all federal, state and local government web resources and services.